Simultaneous Nadir Overpasses (SNOs) Predictions

Prediction of SNOs between AURA and NPP Satellite Orbit:

Table of predicted SNOs for the next 14.0 days since TLE Epoch: 5/11/2019
Index Date (AURA) Time (AURA) Lat,Lon (AURA) SZA (AURA ) Date (NPP) Time (NPP) Lat,Lon (NPP) SZA (NPP ) Distance(km) Time Diff (sec)
1 05/12/2019 03:41:37 79.45, 21.00 74.58 05/12/2019 03:41:26 79.44, 20.95 74.59 1.12 11
2 05/12/2019 04:30:56 -79.75,-169.22 105.89 05/12/2019 04:32:02 -79.75,-169.08 105.96 2.84 66
3 05/14/2019 19:08:42 -79.35, -31.41 105.93 05/14/2019 19:07:41 -79.36, -31.29 105.91 2.57 61
4 05/14/2019 19:58:04 79.50, 137.25 73.85 05/14/2019 19:58:21 79.50, 137.17 73.85 1.66 17
5 05/17/2019 11:25:09 -79.41, 84.85 106.62 05/17/2019 11:24:36 -79.41, 84.92 106.61 1.53 33
6 05/17/2019 12:14:30 79.59,-106.24 73.11 05/17/2019 12:15:15 79.58,-106.35 73.09 2.39 45
7 05/20/2019 03:41:35 -79.46,-158.90 107.27 05/20/2019 03:41:30 -79.47,-158.89 107.27 0.30 5
8 05/20/2019 04:30:53 79.75, 10.83 72.29 05/20/2019 04:32:05 79.76, 10.98 72.21 3.07 72
9 05/22/2019 19:08:39 79.35, 148.59 72.38 05/22/2019 19:07:44 79.36, 148.70 72.40 2.26 55




NCC Satellite Simultaneous Nadir Overpasses (SNOs) Prediction Service
